Date String (YYYY-MM-DD hh:mm:ss) UTC,Instrument flags,Ambient pressure (hPa),Sample flow (lpm),Bypass flow (lpm),Sample temperature (°C),Ambient temperature (°C),ASC tube jacket temperature (°C),LED temperature (°C),Box temperature (°C),Sample RH (%),Span deviation,Mass concentration (μg/m³),Mass concentration (μg/m³),Mass concentration (μg/m³)
DateTimeUTC,F1_M11,P_M11,Q1_M11,Q2_M11,T1_M11,T2_M11,T3_M11,T4_M11,T5_M11,U1_M11,ZSPAN_M11,X0_M11,X2_M11,X1_M11
2022-05-26 16:00:00,,0827.5,5.00,0.00,29.9,29.1,00.0,38.7,31.8,21.2,0000.0,0010.63,0003.96,0003.46
2022-05-26 16:01:00,,0827.5,5.00,0.00,29.9,29.1,00.0,38.7,31.8,20.2,0000.0,0010.66,0003.98,0003.46
2022-05-26 16:02:00,,0827.5,5.00,0.00,29.9,29.1,00.0,38.7,31.8,20.5,0000.0,0010.54,0003.95,0003.43
2022-05-26 16:03:00,,0827.4,4.99,0.00,29.9,29.2,00.0,38.7,31.8,20.1,0000.0,0010.58,0003.95,0003.42
2022-05-26 16:04:00,,0827.5,5.00,0.00,30.0,29.2,00.0,38.7,31.9,20.6,0000.0,0010.76,0003.95,0003.40
2022-05-26 16:05:00,,0827.5,5.00,0.00,30.0,29.2,00.0,38.8,31.9,20.3,0000.0,0010.78,0003.93,0003.39
2022-05-26 16:06:00,,0827.5,5.00,0.00,30.0,29.2,00.0,38.8,31.9,19.8,0000.0,0011.24,0003.93,0003.38
2022-05-26 16:07:00,,0827.5,5.00,0.00,30.0,29.2,00.0,38.8,31.9,20.3,0000.0,0011.26,0003.93,0003.38
2022-05-26 16:08:00,,0827.4,5.00,0.00,30.0,29.2,00.0,38.8,31.9,19.9,0000.0,0011.04,0003.91,0003.36
2022-05-26 16:09:00,,0827.5,4.99,0.00,30.1,29.3,00.0,38.8,31.9,20.3,0000.0,0010.87,0003.95,0003.35
2022-05-26 16:10:00,,0827.5,4.99,0.00,30.1,29.3,00.0,38.8,32.0,20.0,0000.0,0010.36,0003.95,0003.36
2022-05-26 16:11:00,,0827.5,5.00,0.00,30.1,29.3,00.0,38.9,32.0,19.6,0000.0,0009.89,0003.96,0003.37
2022-05-26 16:12:00,,0827.4,5.01,0.00,30.1,29.3,00.0,38.9,32.0,19.6,0000.0,0010.17,0003.98,0003.38
2022-05-26 16:13:00,,0827.4,5.01,0.00,30.1,29.3,00.0,38.9,32.0,20.0,0000.0,0010.34,0004.00,0003.40
2022-05-26 16:14:00,,0827.4,4.99,0.00,30.1,29.4,00.0,38.9,32.0,19.7,0000.0,0010.10,0004.00,0003.42
2022-05-26 16:15:00,,0827.5,5.00,0.00,30.2,29.4,00.0,38.9,32.0,18.9,0000.0,0009.45,0004.01,0003.42
2022-05-26 16:16:00,,0827.5,5.01,0.00,30.2,29.4,00.0,38.9,32.0,18.8,0000.0,0009.46,0004.04,0003.43
2022-05-26 16:17:00,,0827.5,5.00,0.00,30.2,29.4,00.0,39.0,32.1,19.8,0000.0,0009.25,0004.06,0003.44
2022-05-26 16:18:00,,0827.5,5.01,0.00,30.2,29.4,00.0,39.0,32.1,18.4,0000.0,0008.58,0004.04,0003.45
2022-05-26 16:19:00,,0827.5,4.99,0.00,30.2,29.5,00.0,39.0,32.1,19.6,0000.0,0008.24,0004.02,0003.44
2022-05-26 16:20:00,,0827.4,5.00,0.00,30.2,29.2,00.0,39.0,32.1,19.4,0000.0,0008.21,0003.98,0003.44
2022-05-26 16:21:00,,0827.4,5.01,0.00,30.2,28.3,00.0,38.9,31.8,19.6,0000.0,0008.16,0003.96,0003.45
2022-05-26 16:22:00,,0827.4,5.01,0.00,30.1,27.7,00.0,38.9,31.6,19.4,0000.0,0008.23,0003.95,0003.44
2022-05-26 16:23:00,,0827.4,4.99,0.00,30.0,27.6,00.0,38.8,31.5,18.6,0000.0,0008.11,0003.92,0003.42
2022-05-26 16:24:00,,0827.4,5.01,0.00,29.9,27.6,00.0,38.8,31.5,19.6,0000.0,0007.98,0003.95,0003.41
2022-05-26 16:25:00,,0827.4,5.00,0.00,29.9,27.7,00.0,38.8,31.5,17.5,0000.0,0008.40,0003.98,0003.41
2022-05-26 16:26:00,,0827.4,4.98,0.00,29.8,27.9,00.0,38.8,31.5,18.3,0000.0,0008.78,0003.99,0003.40
2022-05-26 16:27:00,,0827.4,5.00,0.00,29.8,28.0,00.0,38.8,31.5,18.6,0000.0,0008.84,0003.99,0003.40
2022-05-26 16:28:00,,0827.4,5.01,0.00,29.8,28.2,00.0,38.8,31.6,19.5,0000.0,0008.86,0003.97,0003.40
2022-05-26 16:29:00,,0827.4,5.00,0.00,29.8,28.3,00.0,38.7,31.6,20.6,0000.0,0008.73,0004.00,0003.40
2022-05-26 16:30:00,,0827.4,4.99,0.00,29.8,28.4,00.0,38.7,31.6,19.6,0000.0,0008.88,0004.03,0003.41
2022-05-26 16:31:00,,0827.4,5.00,0.00,29.8,28.5,00.0,38.7,31.6,19.2,0000.0,0009.01,0004.02,0003.40
2022-05-26 16:32:00,,0827.4,5.01,0.00,29.8,28.6,00.0,38.7,31.6,19.4,0000.0,0009.46,0004.03,0003.39
2022-05-26 16:33:00,,0827.4,5.00,0.00,29.8,28.7,00.0,38.7,31.7,18.5,0000.0,0009.47,0004.03,0003.38
2022-05-26 16:34:00,,0827.4,5.00,0.00,29.8,28.7,00.0,38.7,31.7,18.1,0000.0,0009.45,0004.03,0003.37
2022-05-26 16:35:00,,0827.4,4.99,0.00,29.8,28.8,00.0,38.7,31.7,19.6,0000.0,0009.59,0004.00,0003.37
2022-05-26 16:36:00,,0827.4,5.01,0.00,29.9,28.9,00.0,38.7,31.7,18.8,0000.0,0009.61,0003.98,0003.36
2022-05-26 16:37:00,,0827.4,5.01,0.00,29.9,28.9,00.0,38.7,31.8,18.2,0000.0,0009.30,0003.97,0003.35
2022-05-26 16:38:00,,0827.4,5.00,0.00,29.9,29.0,00.0,38.8,31.7,18.5,0000.0,0009.63,0003.94,0003.34
2022-05-26 16:39:00,,0827.4,4.99,0.00,29.9,29.0,00.0,38.8,31.8,18.0,0000.0,0009.68,0003.99,0003.33
2022-05-26 16:40:00,,0827.4,5.00,0.00,29.9,29.0,00.0,38.8,31.8,18.7,0000.0,0009.48,0003.94,0003.31
2022-05-26 16:41:00,,0827.3,5.01,0.00,30.0,29.0,00.0,38.8,31.8,16.5,0000.0,0009.65,0003.91,0003.28
2022-05-26 16:42:00,,0827.4,5.01,0.00,30.0,28.5,00.0,38.7,31.7,17.2,0000.0,0009.67,0003.89,0003.24
2022-05-26 16:43:00,,0827.4,4.99,0.00,29.9,27.7,00.0,38.7,31.5,16.2,0000.0,0009.55,0003.85,0003.21
2022-05-26 16:44:00,,0827.4,5.00,0.00,29.8,27.5,00.0,38.6,31.4,16.3,0000.0,0010.30,0003.84,0003.18
2022-05-26 16:45:00,,0827.4,5.00,0.00,29.7,27.5,00.0,38.6,31.4,16.5,0000.0,0010.41,0003.83,0003.16
2022-05-26 16:46:00,,0827.4,5.00,0.00,29.7,27.6,00.0,38.6,31.3,17.1,0000.0,0010.44,0003.82,0003.15
2022-05-26 16:47:00,,0827.3,4.99,0.00,29.7,27.7,00.0,38.6,31.4,18.1,0000.0,0010.14,0003.82,0003.12
2022-05-26 16:48:00,,0827.4,4.99,0.00,29.6,27.9,00.0,38.6,31.4,18.0,0000.0,0010.24,0003.78,0003.09
2022-05-26 16:49:00,,0827.4,4.99,0.00,29.6,28.0,00.0,38.6,31.4,16.8,0000.0,0010.06,0003.77,0003.04
2022-05-26 16:50:00,,0827.4,5.00,0.00,29.6,28.2,00.0,38.6,31.4,16.5,0000.0,0009.63,0003.69,0002.97
2022-05-26 16:51:00,,0827.4,4.99,0.00,29.6,28.3,00.0,38.6,31.5,17.4,0000.0,0009.84,0003.65,0002.93
2022-05-26 16:52:00,,0827.4,5.01,0.00,29.7,28.4,00.0,38.6,31.5,14.7,0000.0,0009.81,0003.67,0002.89
2022-05-26 16:53:00,,0827.4,5.00,0.00,29.7,28.5,00.0,38.6,31.5,15.9,0000.0,0009.74,0003.65,0002.85
2022-05-26 16:54:00,,0827.4,5.00,0.00,29.7,28.6,00.0,38.6,31.5,16.8,0000.0,0010.54,0003.66,0002.83
2022-05-26 16:55:00,,0827.4,5.00,0.00,29.7,28.6,00.0,38.6,31.6,16.0,0000.0,0010.72,0003.65,0002.83
2022-05-26 16:56:00,,0827.4,5.00,0.00,29.7,28.7,00.0,38.6,31.6,16.8,0000.0,0010.51,0003.65,0002.83
2022-05-26 16:57:00,,0827.4,4.99,0.00,29.7,28.8,00.0,38.6,31.6,16.8,0000.0,0010.44,0003.65,0002.80
2022-05-26 16:58:00,,0827.4,5.00,0.00,29.8,28.8,00.0,38.6,31.7,16.8,0000.0,0010.63,0003.64,0002.77
2022-05-26 16:59:00,,0827.4,5.01,0.00,29.8,28.9,00.0,38.6,31.7,15.8,0000.0,0010.68,0003.62,0002.77
